Regional Weather Roundup
Issued by NWS Kansas City/Pleasant Hill, MO

Home | Current Version | Previous Version | Graphics & Text | Print | Product List | Glossary Off
Versions: 1 2 3 4 5 6 7 8 9 10 11 12 13 14 15 16 17 18 19 20 21 22 23 24 25 26 27 28 29 30 31 32 33 34 35 36 37 38 39 40 41 42 43 44 45 46 47 48 49 50

000
ASUS43 KEAX 010210
RWREAX

WEATHER ROUNDUP FOR EASTERN KANSAS AND NORTHWEST MISSOURI
NATIONAL WEATHER SERVICE KANSAS CITY/PLEASANT HILL MO
900 PM CDT MON AUG 31 2015

KSZ040-057-103>105-MOZ028-029-037-043-010300-
...KANSAS CITY METROPOLITAN AREA...

CITY           SKY/WX    TMP DP  RH WIND       PRES   REMARKS
K.C. INTL      CLEAR     76  69  79 S7        29.96R
K.C. DOWNTOWN  CLEAR     84  70  62 S8        29.95R
LEES SUMMIT    CLEAR     81  68  64 S8        29.98R
OLATHE - IXD   CLEAR     77  71  82 S8        29.98R
OLATHE - OJC   CLEAR     76  70  82 S7        29.97R
LAWRENCE       CLEAR     77  71  82 SE6       29.96R

$$

MOZ001>008-011>017-020>025-030>033-038>040-044>046-053-054-010300-
...NORTHERN AND CENTRAL MISSOURI...

CITY           SKY/WX    TMP DP  RH WIND       PRES   REMARKS
ST. JOSEPH     CLEAR     77  71  82 S7        29.94R
MOSBY          CLEAR     79  70  73 CALM      29.96R
WARRENSBURG    CLEAR     77  68  73 SE5       29.98R
WHITEMAN AFB   CLEAR     77  70  77 S6        29.98R
CLINTON        CLEAR     79  72  78 CALM      29.99S
SEDALIA        CLEAR     78  69  73 S7        30.01R
WARSAW         NOT AVBL
CHILLICOTHE      N/A     77  71  82 CALM      29.97R
KIRKSVILLE     CLEAR     75  68  78 S5        30.00R

$$

MOZ041-047>049-056>058-063>065-088>090-097-010300-
...EASTERN AND SOUTHERN MISSOURI...

CITY           SKY/WX    TMP DP  RH WIND       PRES   REMARKS
ST. LOUIS INTL MOCLDY    82  72  71 SE10      30.03R
SPIRIT OF STL  PTCLDY    79  73  82 S5        30.01R
COLUMBIA       CLEAR     78  70  76 S6        30.01R
JEFFERSON CITY CLEAR     82  69  64 E5        29.99R
ROLLA          CLEAR     77  70  79 S7        30.04R
OSAGE BEACH    CLEAR     81  70  69 S5        30.03R
SPRINGFIELD    CLEAR     78  69  73 S9        30.04R
BRANSON        PTCLDY    72  68  88 CALM      30.07R
JOPLIN         CLEAR     79  69  71 SE7       30.01R
WEST PLAINS    CLEAR     77  68  73 S6        30.09R

$$

IAZ060-094-KSZ022-034>040-054-083-096-NEZ052-066-093-010300-
...KANSAS...SOUTHEAST NEBRASKA AND IOWA...

CITY           SKY/WX    TMP DP  RH WIND       PRES   REMARKS
TOPEKA         CLEAR     77  70  79 SE6       29.94R
MANHATTAN      CLEAR     79  70  74 S5        29.91R
EMPORIA        CLEAR     79  67  66 S13       29.96R
CHANUTE        PTCLDY    77  71  82 SE7       29.98R
WICHITA        CLEAR     82  63  52 SE10      29.93R
OMAHA          CLEAR     78  69  73 SE7       29.91R
LINCOLN        CLEAR     80  67  64 SE6       29.90R
FALLS CITY     CLEAR     76  70  82 SE7       29.92R
LAMONI         CLEAR     78  68  71 S6        29.97R
DES MOINES     MOCLDY    79  71  76 S5        29.94R

$$



USA.gov is the U.S. government's official web portal to all federal, state and local government web resources and services.